Location: Newark
(13.6797°N, 8.5297°E)
Time: 04:17:00
(UTC+00:00)

Courier 1B Rocket - Pass Details

Date: 20 January 2020
Orbit: 920 x 1202 km, 28.2° (Epoch: 17 February)

Event Time Altitude Azimuth Distance (km) Brightness Sun altitude
Rises 12:05:18 0° 262° (W) 3,864 8.3 55.4°
Reaches altitude 10° 12:08:17 10° 269° (W) 2,862 7.7 55.3°
Maximum altitude 12:14:49 43° 339° (NNW) 1,372 6.0 54.9°
Drops below altitude 10° 12:20:57 10° 50° (NE) 2,682 7.1 54.5°
Sets 12:23:39 0° 57° (ENE) 3,598 7.7 54.2°
